Weather History for Billings, MT

Change the Weather History Date:

Tuesday, February 26, 2013

  Actual Average Record
Temperature  
Mean Temperature 36 °F 33 °F  
Max Temperature 44 °F 43 °F 67 °F (1950)
Min Temperature 28 °F 22 °F -14 °F (1962)
Degree Days  
Heating Degree Days 29 32  
Month to date heating degree days 825 905  
Since 1 July heating degree days 4504 4901  
Cooling Degree Days 0 0  
Month to date cooling degree days 0 0  
Year to date cooling degree days 0 0  
Moisture  
Dew Point 16 °F    
Average Humidity 46    
Maximum Humidity 63    
Minimum Humidity 29    
Precipitation  
Precipitation 0.00 in 0.02 in 0.23 in (1995)
Month to date precipitation 0.29 0.44  
Year to date precipitation 0.88 0.92  
Snow  
Snow 0.00 in 0.30 in 5.60 in (1995)
Month to date snowfall 4.4 5.7  
Since 1 July snowfall 32.1 34.0  
Snow Depth 0.00 in    
Sea Level Pressure  
Sea Level Pressure 30.10 in    
Wind  
Wind Speed 15 mph (NW)    
Max Wind Speed 25 mph    
Max Gust Speed 30 mph    
Visibility 10 miles    
Events      
T = Trace of Precipitation, MM = Missing Value Source: NWS Daily Summary

Daily Weather History Graph

Daily Weather History Graph

Search for Another Location

Airport:

Trip Planner

Search our weather history database for the weather conditions in past years. The results will help you decide how hot, cold, wet, or windy it might be!

Date:

Astronomy

Feb. 26, 2013 Rise Set
Actual Time 6:57 AM MST 5:57 PM MST
Civil Twilight 6:27 AM MST 6:27 PM MST
Nautical Twilight 5:53 AM MST 7:01 PM MST
Astronomical Twilight 5:18 AM MST 7:36 PM MST
Moon 7:24 PM MST (2/26) 6:56 AM MST (2/26)
Length of Visible Light 11h 59m
Length of Day
10h 59m
Full, 99% of the Moon is Illuminated
Feb 26
Full
Mar 4
Last Quarter
Mar 11
New
Mar 19
First Quarter
Mar 27
Full

Hourly Weather History & Observations

Time (MST) Temp. Windchill Dew Point Humidity Pressure Visibility Wind Dir Wind Speed Gust Speed Precip Events Conditions
12:53 AM 34.0 °F 23.0 °F 19.9 °F 56% 29.91 in 10.0 mi West 18.4 mph - N/A   Overcast
1:53 AM 33.1 °F 23.0 °F 19.9 °F 59% 29.92 in 10.0 mi West 15.0 mph - N/A   Mostly Cloudy
2:53 AM 33.1 °F 22.6 °F 18.0 °F 54% 29.93 in 10.0 mi WNW 16.1 mph - N/A   Mostly Cloudy
3:53 AM 32.0 °F 20.5 °F 15.1 °F 50% 29.94 in 10.0 mi WNW 18.4 mph - N/A   Mostly Cloudy
4:53 AM 32.0 °F 21.2 °F 15.1 °F 50% 29.96 in 10.0 mi WNW 16.1 mph - N/A   Scattered Clouds
5:53 AM 32.0 °F 22.1 °F 15.1 °F 50% 30.01 in 10.0 mi WNW 13.8 mph - N/A   Scattered Clouds
6:53 AM 30.9 °F 19.8 °F 14.0 °F 50% 30.03 in 10.0 mi NW 16.1 mph - N/A   Mostly Cloudy
7:53 AM 30.9 °F 21.7 °F 14.0 °F 50% 30.06 in 10.0 mi WNW 11.5 mph - N/A   Scattered Clouds
8:53 AM 34.0 °F 23.8 °F 14.0 °F 44% 30.08 in 10.0 mi WNW 16.1 mph - N/A   Partly Cloudy
9:53 AM 37.0 °F 27.4 °F 14.0 °F 39% 30.09 in 10.0 mi WNW 17.3 mph - N/A   Partly Cloudy
10:53 AM 41.0 °F 32.2 °F 12.9 °F 32% 30.08 in 10.0 mi NNW 18.4 mph 26.5 mph N/A   Partly Cloudy
11:53 AM 43.0 °F 35.7 °F 12.9 °F 30% 30.07 in 10.0 mi NW 15.0 mph 27.6 mph N/A   Scattered Clouds
12:53 PM 43.0 °F 34.5 °F 12.9 °F 30% 30.07 in 10.0 mi NNW 19.6 mph 26.5 mph N/A   Scattered Clouds
1:53 PM 42.1 °F 33.9 °F 12.0 °F 29% 30.08 in 10.0 mi NW 17.3 mph 23.0 mph N/A   Mostly Cloudy
2:53 PM 41.0 °F 32.8 °F 15.1 °F 35% 30.10 in 10.0 mi NNW 16.1 mph 24.2 mph N/A   Mostly Cloudy
3:53 PM 39.9 °F 30.5 °F 17.1 °F 40% 30.14 in 10.0 mi NNW 19.6 mph 28.8 mph N/A   Mostly Cloudy
4:53 PM 39.0 °F 29.3 °F 18.0 °F 43% 30.16 in 10.0 mi NNW 19.6 mph - N/A   Scattered Clouds
5:53 PM 36.0 °F 27.1 °F 16.0 °F 44% 30.19 in 10.0 mi NNW 13.8 mph - N/A   Scattered Clouds
6:53 PM 30.9 °F 22.8 °F 17.1 °F 57% 30.23 in 10.0 mi NW 9.2 mph - N/A   Partly Cloudy
7:53 PM 28.9 °F 19.2 °F 18.0 °F 64% 30.25 in 10.0 mi NW 11.5 mph - N/A   Scattered Clouds
8:53 PM 30.0 °F 21.7 °F 19.0 °F 64% 30.26 in 10.0 mi NW 9.2 mph - N/A   Mostly Cloudy
9:53 PM 28.0 °F 19.3 °F 18.0 °F 66% 30.26 in 10.0 mi WNW 9.2 mph - N/A   Mostly Cloudy
10:53 PM 30.0 °F 24.1 °F 19.0 °F 64% 30.26 in 10.0 mi SSW 5.8 mph - N/A   Mostly Cloudy
11:53 PM 28.9 °F 21.9 °F 19.0 °F 67% 30.27 in 10.0 mi WSW 6.9 mph - N/A   Mostly Cloudy